Time,TemperatureF,DewpointF,PressureIn,WindDirection,WindDirectionDegrees,WindSpeedMPH,WindSpeedGustMPH,Humidity,HourlyPrecipIn,Conditions,Clouds,dailyrainin,SolarRadiationWatts/m^2,SoftwareType,DateUTC
2017-03-26 00:00:00,33.7,28.0,30.53,NE,45,5.0,7.0,76,0.00,,,0.00,0,Rainwise IP-100,2017-03-26 04:00:00,
2017-03-26 00:05:00,33.5,28.0,30.54,ENE,67,2.0,6.0,76,0.00,,,0.00,0,Rainwise IP-100,2017-03-26 04:05:00,
2017-03-26 00:11:00,33.3,28.0,30.54,NNE,22,6.0,6.0,77,0.00,,,0.00,0,Rainwise IP-100,2017-03-26 04:11:00,
2017-03-26 00:16:00,33.1,28.0,30.54,NE,45,2.0,7.0,77,0.00,,,0.00,0,Rainwise IP-100,2017-03-26 04:16:00,
2017-03-26 00:21:00,32.9,28.0,30.53,ENE,67,2.0,6.0,77,0.00,,,0.00,0,Rainwise IP-100,2017-03-26 04:21:00,
2017-03-26 00:26:00,32.7,28.0,30.53,NE,45,4.0,4.0,77,0.00,,,0.00,0,Rainwise IP-100,2017-03-26 04:26:00,
2017-03-26 00:31:00,32.7,28.0,30.53,NE,45,3.0,7.0,77,0.00,,,0.00,0,Rainwise IP-100,2017-03-26 04:31:00,
2017-03-26 00:36:00,32.7,28.0,30.53,ENE,67,1.0,7.0,77,0.00,,,0.00,0,Rainwise IP-100,2017-03-26 04:36:00,
2017-03-26 00:41:00,32.6,28.0,30.53,NE,45,4.0,6.0,78,0.00,,,0.00,0,Rainwise IP-100,2017-03-26 04:41:00,
2017-03-26 00:46:00,32.5,28.0,30.53,NE,45,6.0,7.0,78,0.00,,,0.00,0,Rainwise IP-100,2017-03-26 04:46:00,
2017-03-26 00:51:00,32.4,26.0,30.53,NE,45,3.0,7.0,78,0.00,,,0.00,0,Rainwise IP-100,2017-03-26 04:51:00,
2017-03-26 00:56:00,32.3,26.0,30.53,NNE,22,3.0,7.0,78,0.00,,,0.00,0,Rainwise IP-100,2017-03-26 04:56:00,
2017-03-26 01:01:00,32.1,26.0,30.53,NE,45,4.0,5.0,79,0.00,,,0.00,0,Rainwise IP-100,2017-03-26 05:01:00,
2017-03-26 01:06:00,32.0,26.0,30.53,NE,45,1.0,6.0,79,0.00,,,0.00,0,Rainwise IP-100,2017-03-26 05:06:00,
2017-03-26 01:12:00,31.9,26.0,30.53,ENE,67,3.0,4.0,80,0.00,,,0.00,0,Rainwise IP-100,2017-03-26 05:12:00,
2017-03-26 01:17:00,31.7,26.0,30.53,NE,45,2.0,5.0,80,0.00,,,0.00,0,Rainwise IP-100,2017-03-26 05:17:00,
2017-03-26 01:22:00,31.9,28.0,30.53,NE,45,5.0,7.0,81,0.00,,,0.00,0,Rainwise IP-100,2017-03-26 05:22:00,
2017-03-26 01:27:00,32.0,28.0,30.53,NE,45,1.0,6.0,81,0.00,,,0.00,0,Rainwise IP-100,2017-03-26 05:27:00,
2017-03-26 01:32:00,31.9,28.0,30.53,NE,45,5.0,6.0,82,0.00,,,0.00,0,Rainwise IP-100,2017-03-26 05:32:00,
2017-03-26 01:37:00,31.9,28.0,30.54,NE,45,1.0,7.0,82,0.00,,,0.00,0,Rainwise IP-100,2017-03-26 05:37:00,
2017-03-26 01:42:00,31.8,28.0,30.53,NE,45,4.0,9.0,82,0.00,,,0.00,0,Rainwise IP-100,2017-03-26 05:42:00,
2017-03-26 01:47:00,31.8,28.0,30.53,NE,45,9.0,9.0,83,0.00,,,0.00,0,Rainwise IP-100,2017-03-26 05:47:00,
2017-03-26 01:52:00,31.9,28.0,30.53,NE,45,2.0,11.0,83,0.00,,,0.00,0,Rainwise IP-100,2017-03-26 05:52:00,
2017-03-26 01:57:00,31.8,28.0,30.54,NE,45,2.0,6.0,83,0.00,,,0.00,0,Rainwise IP-100,2017-03-26 05:57:00,
2017-03-26 02:02:00,31.7,28.0,30.54,ENE,67,3.0,6.0,83,0.00,,,0.00,0,Rainwise IP-100,2017-03-26 06:02:00,
2017-03-26 02:07:00,31.7,28.0,30.54,ENE,67,3.0,7.0,83,0.00,,,0.00,0,Rainwise IP-100,2017-03-26 06:07:00,
2017-03-26 02:13:00,31.6,28.0,30.54,East,90,2.0,7.0,83,0.00,,,0.00,0,Rainwise IP-100,2017-03-26 06:13:00,
2017-03-26 02:18:00,31.7,28.0,30.54,NE,45,6.0,6.0,83,0.00,,,0.00,0,Rainwise IP-100,2017-03-26 06:18:00,
2017-03-26 02:23:00,31.5,28.0,30.55,ENE,67,0.0,7.0,83,0.00,,,0.00,0,Rainwise IP-100,2017-03-26 06:23:00,
2017-03-26 02:28:00,31.3,26.0,30.54,ENE,67,2.0,7.0,83,0.00,,,0.00,0,Rainwise IP-100,2017-03-26 06:28:00,
2017-03-26 02:33:00,31.2,26.0,30.54,NE,45,6.0,8.0,83,0.00,,,0.00,0,Rainwise IP-100,2017-03-26 06:33:00,
2017-03-26 02:38:00,31.0,26.0,30.54,East,90,2.0,6.0,83,0.00,,,0.00,0,Rainwise IP-100,2017-03-26 06:38:00,
2017-03-26 02:43:00,30.9,26.0,30.54,NE,45,4.0,6.0,82,0.00,,,0.00,0,Rainwise IP-100,2017-03-26 06:43:00,
2017-03-26 02:48:00,30.7,26.0,30.54,NE,45,6.0,7.0,82,0.00,,,0.00,0,Rainwise IP-100,2017-03-26 06:48:00,
2017-03-26 02:53:00,30.6,26.0,30.54,NE,45,3.0,8.0,82,0.00,,,0.00,0,Rainwise IP-100,2017-03-26 06:53:00,
2017-03-26 02:58:00,30.5,26.0,30.54,East,90,1.0,4.0,83,0.00,,,0.00,0,Rainwise IP-100,2017-03-26 06:58:00,
2017-03-26 03:03:00,30.2,26.0,30.54,ENE,67,2.0,3.0,83,0.00,,,0.00,0,Rainwise IP-100,2017-03-26 07:03:00,
2017-03-26 03:08:00,30.1,26.0,30.54,NE,45,2.0,4.0,83,0.00,,,0.00,0,Rainwise IP-100,2017-03-26 07:08:00,
2017-03-26 03:14:00,30.1,26.0,30.54,NE,45,2.0,4.0,83,0.00,,,0.00,0,Rainwise IP-100,2017-03-26 07:14:00,
2017-03-26 03:19:00,30.0,26.0,30.54,NE,45,3.0,4.0,83,0.00,,,0.00,0,Rainwise IP-100,2017-03-26 07:19:00,
2017-03-26 03:24:00,30.1,26.0,30.54,NNE,22,3.0,6.0,83,0.00,,,0.00,0,Rainwise IP-100,2017-03-26 07:24:00,
2017-03-26 03:29:00,30.1,26.0,30.54,NNE,22,5.0,6.0,83,0.00,,,0.00,0,Rainwise IP-100,2017-03-26 07:29:00,
2017-03-26 03:34:00,30.1,26.0,30.54,NE,45,4.0,6.0,83,0.00,,,0.00,0,Rainwise IP-100,2017-03-26 07:34:00,
2017-03-26 03:39:00,30.1,26.0,30.54,NE,45,5.0,6.0,83,0.00,,,0.00,0,Rainwise IP-100,2017-03-26 07:39:00,
2017-03-26 03:44:00,30.1,26.0,30.54,NE,45,4.0,6.0,83,0.00,,,0.00,0,Rainwise IP-100,2017-03-26 07:44:00,
2017-03-26 03:49:00,30.1,26.0,30.54,NNE,22,5.0,5.0,83,0.00,,,0.00,0,Rainwise IP-100,2017-03-26 07:49:00,
2017-03-26 03:54:00,30.2,26.0,30.54,NE,45,4.0,6.0,83,0.00,,,0.00,0,Rainwise IP-100,2017-03-26 07:54:00,
2017-03-26 03:59:00,30.2,26.0,30.55,NNE,22,2.0,6.0,83,0.00,,,0.00,0,Rainwise IP-100,2017-03-26 07:59:00,
2017-03-26 04:04:00,30.2,26.0,30.55,NE,45,5.0,6.0,82,0.00,,,0.00,0,Rainwise IP-100,2017-03-26 08:04:00,
2017-03-26 04:09:00,30.4,26.0,30.55,NNE,22,1.0,6.0,82,0.00,,,0.00,0,Rainwise IP-100,2017-03-26 08:09:00,
2017-03-26 04:15:00,30.4,26.0,30.55,NE,45,5.0,6.0,82,0.00,,,0.00,0,Rainwise IP-100,2017-03-26 08:15:00,
2017-03-26 04:20:00,30.4,26.0,30.55,ENE,67,2.0,6.0,81,0.00,,,0.00,0,Rainwise IP-100,2017-03-26 08:20:00,
2017-03-26 04:25:00,30.4,26.0,30.55,NE,45,4.0,6.0,80,0.00,,,0.00,0,Rainwise IP-100,2017-03-26 08:25:00,
2017-03-26 04:30:00,30.5,26.0,30.56,North,360,0.0,5.0,80,0.00,,,0.00,0,Rainwise IP-100,2017-03-26 08:30:00,
2017-03-26 04:35:00,30.5,26.0,30.56,ENE,67,2.0,5.0,80,0.00,,,0.00,0,Rainwise IP-100,2017-03-26 08:35:00,
2017-03-26 04:40:00,30.5,24.0,30.57,NNE,22,2.0,5.0,79,0.00,,,0.00,0,Rainwise IP-100,2017-03-26 08:40:00,
2017-03-26 04:45:00,30.5,24.0,30.57,ENE,67,1.0,4.0,79,0.00,,,0.00,0,Rainwise IP-100,2017-03-26 08:45:00,
2017-03-26 04:50:00,30.5,24.0,30.57,NE,45,1.0,4.0,79,0.00,,,0.00,0,Rainwise IP-100,2017-03-26 08:50:00,
2017-03-26 04:55:00,30.5,24.0,30.56,NNE,22,2.0,6.0,78,0.00,,,0.00,0,Rainwise IP-100,2017-03-26 08:55:00,
2017-03-26 05:00:00,30.5,24.0,30.56,NE,45,1.0,6.0,77,0.00,,,0.00,0,Rainwise IP-100,2017-03-26 09:00:00,
2017-03-26 05:05:00,30.5,24.0,30.56,NE,45,4.0,4.0,78,0.00,,,0.00,0,Rainwise IP-100,2017-03-26 09:05:00,
2017-03-26 05:10:00,30.5,24.0,30.57,NNE,22,3.0,7.0,77,0.00,,,0.00,0,Rainwise IP-100,2017-03-26 09:10:00,
2017-03-26 05:17:00,30.4,24.0,30.57,North,360,4.0,4.0,78,0.00,,,0.00,0,Rainwise IP-100,2017-03-26 09:17:00,
2017-03-26 05:22:00,30.4,24.0,30.57,NE,45,3.0,7.0,76,0.00,,,0.00,0,Rainwise IP-100,2017-03-26 09:22:00,
2017-03-26 05:27:00,30.4,24.0,30.57,NE,45,2.0,6.0,77,0.00,,,0.00,0,Rainwise IP-100,2017-03-26 09:27:00,
2017-03-26 05:32:00,30.4,24.0,30.57,NE,45,2.0,5.0,77,0.00,,,0.00,0,Rainwise IP-100,2017-03-26 09:32:00,
2017-03-26 05:37:00,30.4,24.0,30.57,NE,45,4.0,5.0,77,0.00,,,0.00,0,Rainwise IP-100,2017-03-26 09:37:00,
2017-03-26 05:42:00,30.4,24.0,30.57,NE,45,2.0,4.0,78,0.00,,,0.00,0,Rainwise IP-100,2017-03-26 09:42:00,
2017-03-26 05:47:00,30.3,24.0,30.57,NNE,22,1.0,2.0,78,0.00,,,0.00,0,Rainwise IP-100,2017-03-26 09:47:00,
2017-03-26 05:52:00,30.3,24.0,30.57,NNE,22,1.0,3.0,78,0.00,,,0.00,0,Rainwise IP-100,2017-03-26 09:52:00,
2017-03-26 05:57:00,30.3,24.0,30.57,NE,45,4.0,4.0,78,0.00,,,0.00,0,Rainwise IP-100,2017-03-26 09:57:00,
2017-03-26 06:02:00,30.2,24.0,30.57,NE,45,2.0,4.0,78,0.00,,,0.00,0,Rainwise IP-100,2017-03-26 10:02:00,
2017-03-26 06:07:00,30.2,24.0,30.57,NE,45,4.0,4.0,79,0.00,,,0.00,0,Rainwise IP-100,2017-03-26 10:07:00,
2017-03-26 06:12:00,30.1,24.0,30.57,NE,45,1.0,5.0,79,0.00,,,0.00,0,Rainwise IP-100,2017-03-26 10:12:00,
2017-03-26 06:18:00,30.1,24.0,30.58,NE,45,1.0,4.0,79,0.00,,,0.00,0,Rainwise IP-100,2017-03-26 10:18:00,
2017-03-26 06:23:00,30.5,24.0,30.58,NE,45,2.0,5.0,79,0.00,,,0.00,0,Rainwise IP-100,2017-03-26 10:23:00,
2017-03-26 06:28:00,30.4,24.0,30.58,NE,45,4.0,5.0,79,0.00,,,0.00,0,Rainwise IP-100,2017-03-26 10:28:00,
2017-03-26 06:33:00,30.4,24.0,30.58,NNE,22,2.0,4.0,79,0.00,,,0.00,0,Rainwise IP-100,2017-03-26 10:33:00,
2017-03-26 06:38:00,30.4,24.0,30.58,NNE,22,1.0,5.0,79,0.00,,,0.00,0,Rainwise IP-100,2017-03-26 10:38:00,
2017-03-26 06:43:00,30.3,24.0,30.58,NNE,22,2.0,4.0,79,0.00,,,0.00,0,Rainwise IP-100,2017-03-26 10:43:00,
2017-03-26 06:48:00,30.3,24.0,30.59,NE,45,2.0,6.0,79,0.00,,,0.00,0,Rainwise IP-100,2017-03-26 10:48:00,
2017-03-26 06:53:00,30.3,24.0,30.58,NNE,22,1.0,4.0,79,0.00,,,0.00,0,Rainwise IP-100,2017-03-26 10:53:00,
2017-03-26 06:58:00,30.3,24.0,30.58,NE,45,1.0,2.0,79,0.00,,,0.00,0,Rainwise IP-100,2017-03-26 10:58:00,
2017-03-26 07:03:00,30.3,26.0,30.58,NE,45,2.0,2.0,80,0.00,,,0.00,0,Rainwise IP-100,2017-03-26 11:03:00,
2017-03-26 07:08:00,30.3,26.0,30.58,North,360,3.0,3.0,80,0.00,,,0.00,0,Rainwise IP-100,2017-03-26 11:08:00,
2017-03-26 07:13:00,30.3,26.0,30.58,NE,45,2.0,3.0,80,0.00,,,0.00,0,Rainwise IP-100,2017-03-26 11:13:00,
2017-03-26 07:19:00,30.4,26.0,30.58,ENE,67,1.0,4.0,80,0.00,,,0.00,0,Rainwise IP-100,2017-03-26 11:19:00,
2017-03-26 07:24:00,30.1,26.0,30.58,NE,45,1.0,4.0,80,0.00,,,0.00,0,Rainwise IP-100,2017-03-26 11:24:00,
2017-03-26 07:29:00,29.9,24.0,30.58,NE,45,2.0,7.0,79,0.00,,,0.00,5,Rainwise IP-100,2017-03-26 11:29:00,
2017-03-26 07:34:00,30.0,24.0,30.58,NE,45,2.0,5.0,79,0.00,,,0.00,8,Rainwise IP-100,2017-03-26 11:34:00,
2017-03-26 07:39:00,30.1,24.0,30.59,NNE,22,2.0,4.0,79,0.00,,,0.00,11,Rainwise IP-100,2017-03-26 11:39:00,
2017-03-26 07:44:00,30.2,24.0,30.58,North,360,1.0,5.0,78,0.00,,,0.00,11,Rainwise IP-100,2017-03-26 11:44:00,
2017-03-26 07:49:00,30.2,24.0,30.58,NNE,22,4.0,4.0,78,0.00,,,0.00,8,Rainwise IP-100,2017-03-26 11:49:00,
2017-03-26 07:54:00,30.1,24.0,30.58,NNE,22,4.0,5.0,77,0.00,,,0.00,10,Rainwise IP-100,2017-03-26 11:54:00,
2017-03-26 07:59:00,30.1,24.0,30.58,NE,45,2.0,4.0,77,0.00,,,0.00,11,Rainwise IP-100,2017-03-26 11:59:00,
2017-03-26 08:04:00,30.2,24.0,30.58,NNW,337,2.0,4.0,78,0.00,,,0.00,12,Rainwise IP-100,2017-03-26 12:04:00,
2017-03-26 08:09:00,30.4,24.0,30.59,North,360,2.0,3.0,78,0.00,,,0.00,14,Rainwise IP-100,2017-03-26 12:09:00,
2017-03-26 08:12:00,30.5,24.0,30.59,NNE,22,2.0,2.0,78,0.00,,,0.00,15,Rainwise IP-100,2017-03-26 12:12:00,
2017-03-26 08:18:00,30.7,24.0,30.58,NE,45,1.0,2.0,78,0.00,,,0.00,15,Rainwise IP-100,2017-03-26 12:18:00,
2017-03-26 08:23:00,30.8,24.0,30.59,NNE,22,2.0,3.0,78,0.00,,,0.00,19,Rainwise IP-100,2017-03-26 12:23:00,
2017-03-26 08:28:00,31.3,24.0,30.59,NNE,22,2.0,4.0,78,0.00,,,0.00,18,Rainwise IP-100,2017-03-26 12:28:00,
2017-03-26 08:33:00,31.4,24.0,30.59,North,360,1.0,4.0,78,0.00,,,0.00,18,Rainwise IP-100,2017-03-26 12:33:00,
2017-03-26 08:38:00,31.5,26.0,30.59,NNE,22,1.0,2.0,78,0.00,,,0.00,18,Rainwise IP-100,2017-03-26 12:38:00,
2017-03-26 08:43:00,31.6,26.0,30.58,North,360,1.0,4.0,77,0.00,,,0.00,18,Rainwise IP-100,2017-03-26 12:43:00,
2017-03-26 08:48:00,31.6,26.0,30.59,North,360,2.0,4.0,77,0.00,,,0.00,22,Rainwise IP-100,2017-03-26 12:48:00,
2017-03-26 08:53:00,31.6,26.0,30.59,North,360,1.0,3.0,77,0.00,,,0.00,19,Rainwise IP-100,2017-03-26 12:53:00,
2017-03-26 08:58:00,31.7,26.0,30.59,North,360,2.0,4.0,77,0.00,,,0.00,15,Rainwise IP-100,2017-03-26 12:58:00,
2017-03-26 09:03:00,31.7,26.0,30.59,North,360,2.0,4.0,77,0.00,,,0.00,11,Rainwise IP-100,2017-03-26 13:03:00,
2017-03-26 09:08:00,31.7,26.0,30.59,North,360,2.0,4.0,77,0.00,,,0.00,10,Rainwise IP-100,2017-03-26 13:08:00,
2017-03-26 09:13:00,31.6,26.0,30.59,NNE,22,1.0,4.0,77,0.00,,,0.00,11,Rainwise IP-100,2017-03-26 13:13:00,
2017-03-26 09:19:00,31.5,26.0,30.59,NNE,22,1.0,4.0,78,0.00,,,0.00,15,Rainwise IP-100,2017-03-26 13:19:00,
2017-03-26 09:24:00,31.4,24.0,30.59,NNE,22,2.0,3.0,78,0.00,,,0.00,18,Rainwise IP-100,2017-03-26 13:24:00,
2017-03-26 09:29:00,30.9,24.0,30.59,NNE,22,1.0,2.0,79,0.00,,,0.00,17,Rainwise IP-100,2017-03-26 13:29:00,
2017-03-26 09:34:00,30.9,24.0,30.59,North,360,1.0,2.0,79,0.00,,,0.00,24,Rainwise IP-100,2017-03-26 13:34:00,
2017-03-26 09:39:00,31.0,26.0,30.59,North,360,1.0,2.0,81,0.00,,,0.00,29,Rainwise IP-100,2017-03-26 13:39:00,
2017-03-26 09:44:00,31.2,26.0,30.59,North,360,2.0,2.0,82,0.00,,,0.00,25,Rainwise IP-100,2017-03-26 13:44:00,
2017-03-26 09:49:00,31.0,26.0,30.60,NNW,337,2.0,2.0,83,0.00,,,0.00,21,Rainwise IP-100,2017-03-26 13:49:00,
2017-03-26 09:54:00,31.1,26.0,30.60,NNW,337,0.0,2.0,83,0.00,,,0.00,22,Rainwise IP-100,2017-03-26 13:54:00,
2017-03-26 09:59:00,31.0,26.0,30.60,West,270,2.0,2.0,83,0.00,,,0.00,22,Rainwise IP-100,2017-03-26 13:59:00,
2017-03-26 10:04:00,30.9,26.0,30.60,West,270,0.0,2.0,82,0.00,,,0.00,22,Rainwise IP-100,2017-03-26 14:04:00,
2017-03-26 10:09:00,31.0,26.0,30.60,West,270,0.0,1.0,83,0.00,,,0.00,22,Rainwise IP-100,2017-03-26 14:09:00,
2017-03-26 10:14:00,30.9,26.0,30.60,West,270,2.0,0.0,82,0.00,,,0.00,19,Rainwise IP-100,2017-03-26 14:14:00,
2017-03-26 10:20:00,30.9,26.0,30.60,West,270,0.0,2.0,82,0.00,,,0.00,18,Rainwise IP-100,2017-03-26 14:20:00,
2017-03-26 10:25:00,30.8,26.0,30.61,West,270,2.0,2.0,83,0.00,,,0.00,18,Rainwise IP-100,2017-03-26 14:25:00,
2017-03-26 10:30:00,30.8,26.0,30.61,West,270,2.0,2.0,83,0.30,,,0.05,21,Rainwise IP-100,2017-03-26 14:30:00,
2017-03-26 10:35:00,30.8,26.0,30.61,West,270,1.0,2.0,83,0.36,,,0.06,21,Rainwise IP-100,2017-03-26 14:35:00,
2017-03-26 10:40:00,30.9,26.0,30.60,West,270,2.0,2.0,83,0.06,,,0.06,19,Rainwise IP-100,2017-03-26 14:40:00,
2017-03-26 10:45:00,30.9,26.0,30.61,West,270,0.0,2.0,82,0.06,,,0.07,19,Rainwise IP-100,2017-03-26 14:45:00,
2017-03-26 10:50:00,31.0,26.0,30.61,West,270,1.0,2.0,83,0.12,,,0.08,22,Rainwise IP-100,2017-03-26 14:50:00,
2017-03-26 10:55:00,31.2,26.0,30.61,West,270,0.0,2.0,83,0.06,,,0.08,29,Rainwise IP-100,2017-03-26 14:55:00,
2017-03-26 11:00:00,31.2,26.0,30.61,West,270,0.0,0.0,83,0.00,,,0.08,37,Rainwise IP-100,2017-03-26 15:00:00,
2017-03-26 11:05:00,31.4,26.0,30.61,West,270,0.0,0.0,83,0.06,,,0.09,44,Rainwise IP-100,2017-03-26 15:05:00,
2017-03-26 11:10:00,31.6,28.0,30.60,West,270,0.0,0.0,82,0.06,,,0.09,53,Rainwise IP-100,2017-03-26 15:10:00,
2017-03-26 11:15:00,31.8,28.0,30.60,West,270,0.0,0.0,82,0.00,,,0.09,55,Rainwise IP-100,2017-03-26 15:15:00,
2017-03-26 11:21:00,32.1,28.0,30.60,West,270,0.0,0.0,82,0.00,,,0.09,61,Rainwise IP-100,2017-03-26 15:21:00,
2017-03-26 11:26:00,32.4,28.0,30.60,West,270,0.0,0.0,82,0.00,,,0.09,77,Rainwise IP-100,2017-03-26 15:26:00,
2017-03-26 11:31:00,32.7,29.0,30.61,West,270,0.0,0.0,82,0.00,,,0.09,87,Rainwise IP-100,2017-03-26 15:31:00,
2017-03-26 11:36:00,32.8,29.0,30.61,West,270,0.0,0.0,82,0.00,,,0.09,94,Rainwise IP-100,2017-03-26 15:36:00,
2017-03-26 11:41:00,33.3,28.0,30.60,West,270,0.0,0.0,81,0.00,,,0.09,103,Rainwise IP-100,2017-03-26 15:41:00,
2017-03-26 11:46:00,34.1,29.0,30.60,West,270,0.0,0.0,81,0.00,,,0.09,122,Rainwise IP-100,2017-03-26 15:46:00,
2017-03-26 11:51:00,34.7,29.0,30.60,West,270,0.0,0.0,81,0.00,,,0.09,145,Rainwise IP-100,2017-03-26 15:51:00,
2017-03-26 11:56:00,34.9,29.0,30.60,SE,135,0.0,2.0,80,0.00,,,0.09,141,Rainwise IP-100,2017-03-26 15:56:00,
2017-03-26 12:01:00,35.3,29.0,30.61,NW,315,1.0,2.0,81,0.00,,,0.09,124,Rainwise IP-100,2017-03-26 16:01:00,
2017-03-26 12:06:00,35.5,31.0,30.60,NW,315,0.0,2.0,81,0.00,,,0.09,113,Rainwise IP-100,2017-03-26 16:06:00,
2017-03-26 12:11:00,35.8,31.0,30.60,West,270,1.0,2.0,81,0.00,,,0.09,108,Rainwise IP-100,2017-03-26 16:11:00,
2017-03-26 12:16:00,35.9,31.0,30.60,West,270,1.0,2.0,81,0.00,,,0.09,132,Rainwise IP-100,2017-03-26 16:16:00,
2017-03-26 12:22:00,36.2,31.0,30.60,West,270,1.0,2.0,81,0.00,,,0.09,124,Rainwise IP-100,2017-03-26 16:22:00,
2017-03-26 12:27:00,36.2,31.0,30.60,West,270,2.0,2.0,81,0.00,,,0.09,115,Rainwise IP-100,2017-03-26 16:27:00,
2017-03-26 12:32:00,36.2,31.0,30.60,WSW,247,1.0,2.0,81,0.00,,,0.09,102,Rainwise IP-100,2017-03-26 16:32:00,
2017-03-26 12:37:00,36.1,31.0,30.60,West,270,2.0,2.0,81,0.00,,,0.09,101,Rainwise IP-100,2017-03-26 16:37:00,
2017-03-26 12:42:00,36.2,31.0,30.60,West,270,1.0,2.0,81,0.00,,,0.09,128,Rainwise IP-100,2017-03-26 16:42:00,
2017-03-26 12:47:00,36.8,32.0,30.60,West,270,2.0,2.0,80,0.00,,,0.09,162,Rainwise IP-100,2017-03-26 16:47:00,
2017-03-26 12:52:00,37.7,32.0,30.60,SW,225,2.0,2.0,80,0.00,,,0.09,158,Rainwise IP-100,2017-03-26 16:52:00,
2017-03-26 12:57:00,38.2,32.0,30.60,SW,225,2.0,2.0,80,0.00,,,0.09,148,Rainwise IP-100,2017-03-26 16:57:00,
2017-03-26 13:02:00,38.2,32.0,30.60,West,270,3.0,5.0,80,0.00,,,0.09,138,Rainwise IP-100,2017-03-26 17:02:00,
2017-03-26 13:07:00,37.3,32.0,30.60,WSW,247,1.0,4.0,81,0.00,,,0.09,113,Rainwise IP-100,2017-03-26 17:07:00,
2017-03-26 13:12:00,37.3,32.0,30.60,SW,225,1.0,4.0,81,0.00,,,0.09,117,Rainwise IP-100,2017-03-26 17:12:00,
2017-03-26 13:17:00,36.9,32.0,30.60,West,270,2.0,4.0,81,0.00,,,0.09,129,Rainwise IP-100,2017-03-26 17:17:00,
2017-03-26 13:23:00,37.1,32.0,30.60,SSW,202,2.0,2.0,81,0.00,,,0.09,135,Rainwise IP-100,2017-03-26 17:23:00,
2017-03-26 13:28:00,37.9,33.0,30.59,SW,225,1.0,2.0,81,0.00,,,0.09,148,Rainwise IP-100,2017-03-26 17:28:00,
2017-03-26 13:33:00,39.2,33.0,30.59,SW,225,2.0,3.0,80,0.00,,,0.09,151,Rainwise IP-100,2017-03-26 17:33:00,
2017-03-26 13:38:00,39.6,35.0,30.59,WNW,292,2.0,2.0,80,0.00,,,0.09,139,Rainwise IP-100,2017-03-26 17:38:00,
2017-03-26 13:43:00,39.9,35.0,30.59,WNW,292,1.0,3.0,79,0.00,,,0.09,108,Rainwise IP-100,2017-03-26 17:43:00,
2017-03-26 13:48:00,40.1,35.0,30.58,WNW,292,0.0,2.0,79,0.00,,,0.09,127,Rainwise IP-100,2017-03-26 17:48:00,
2017-03-26 13:53:00,39.9,35.0,30.58,WNW,292,2.0,4.0,79,0.00,,,0.09,138,Rainwise IP-100,2017-03-26 17:53:00,
2017-03-26 13:58:00,38.9,33.0,30.58,WNW,292,2.0,4.0,79,0.00,,,0.09,100,Rainwise IP-100,2017-03-26 17:58:00,
2017-03-26 14:03:00,38.6,33.0,30.58,West,270,3.0,3.0,80,0.00,,,0.09,94,Rainwise IP-100,2017-03-26 18:03:00,
2017-03-26 14:08:00,38.3,32.0,30.58,WNW,292,2.0,4.0,80,0.00,,,0.09,107,Rainwise IP-100,2017-03-26 18:08:00,
2017-03-26 14:13:00,38.4,32.0,30.57,WNW,292,2.0,3.0,80,0.00,,,0.09,113,Rainwise IP-100,2017-03-26 18:13:00,
2017-03-26 14:18:00,38.5,33.0,30.57,West,270,2.0,4.0,80,0.00,,,0.09,98,Rainwise IP-100,2017-03-26 18:18:00,
2017-03-26 14:24:00,38.7,33.0,30.57,West,270,0.0,2.0,80,0.00,,,0.09,113,Rainwise IP-100,2017-03-26 18:24:00,
2017-03-26 14:29:00,39.3,33.0,30.57,South,180,4.0,6.0,80,0.00,,,0.09,102,Rainwise IP-100,2017-03-26 18:29:00,
2017-03-26 14:34:00,39.3,32.0,30.57,South,180,2.0,8.0,76,0.00,,,0.09,88,Rainwise IP-100,2017-03-26 18:34:00,
2017-03-26 14:39:00,39.4,32.0,30.57,SSE,157,4.0,7.0,74,0.00,,,0.09,94,Rainwise IP-100,2017-03-26 18:39:00,
2017-03-26 14:44:00,39.3,32.0,30.57,SW,225,1.0,6.0,73,0.00,,,0.09,80,Rainwise IP-100,2017-03-26 18:44:00,
2017-03-26 14:49:00,39.2,32.0,30.57,South,180,7.0,7.0,73,0.00,,,0.09,72,Rainwise IP-100,2017-03-26 18:49:00,
2017-03-26 14:54:00,38.9,32.0,30.57,South,180,4.0,7.0,73,0.00,,,0.09,94,Rainwise IP-100,2017-03-26 18:54:00,
2017-03-26 14:59:00,38.8,32.0,30.56,South,180,3.0,7.0,74,0.00,,,0.09,74,Rainwise IP-100,2017-03-26 18:59:00,
2017-03-26 15:04:00,38.5,31.0,30.56,SSE,157,7.0,8.0,72,0.00,,,0.09,50,Rainwise IP-100,2017-03-26 19:04:00,
2017-03-26 15:09:00,38.3,31.0,30.56,SE,135,8.0,10.0,74,0.00,,,0.09,30,Rainwise IP-100,2017-03-26 19:09:00,
2017-03-26 15:14:00,37.9,31.0,30.55,South,180,4.0,8.0,74,0.00,,,0.09,27,Rainwise IP-100,2017-03-26 19:14:00,
2017-03-26 15:19:00,37.8,31.0,30.55,South,180,4.0,6.0,75,0.00,,,0.09,26,Rainwise IP-100,2017-03-26 19:19:00,
2017-03-26 15:25:00,37.8,31.0,30.55,SSW,202,2.0,4.0,74,0.00,,,0.09,24,Rainwise IP-100,2017-03-26 19:25:00,
2017-03-26 15:30:00,37.7,31.0,30.55,South,180,2.0,7.0,75,0.00,,,0.09,32,Rainwise IP-100,2017-03-26 19:30:00,
2017-03-26 15:35:00,37.5,32.0,30.55,SSE,157,2.0,4.0,77,0.00,,,0.09,37,Rainwise IP-100,2017-03-26 19:35:00,
2017-03-26 15:40:00,37.2,31.0,30.55,South,180,2.0,6.0,78,0.00,,,0.09,36,Rainwise IP-100,2017-03-26 19:40:00,
2017-03-26 15:45:00,37.1,31.0,30.54,South,180,3.0,3.0,79,0.00,,,0.09,33,Rainwise IP-100,2017-03-26 19:45:00,
2017-03-26 15:50:00,37.0,32.0,30.55,South,180,1.0,4.0,80,0.00,,,0.09,26,Rainwise IP-100,2017-03-26 19:50:00,
2017-03-26 15:55:00,37.0,32.0,30.54,South,180,1.0,2.0,80,0.00,,,0.09,31,Rainwise IP-100,2017-03-26 19:55:00,
2017-03-26 16:00:00,37.1,32.0,30.54,South,180,0.0,2.0,80,0.06,,,0.10,41,Rainwise IP-100,2017-03-26 20:00:00,
2017-03-26 16:05:00,37.1,32.0,30.54,South,180,0.0,2.0,80,0.06,,,0.10,31,Rainwise IP-100,2017-03-26 20:05:00,
2017-03-26 16:10:00,37.0,32.0,30.53,South,180,0.0,2.0,80,0.06,,,0.11,25,Rainwise IP-100,2017-03-26 20:10:00,
2017-03-26 16:15:00,36.9,32.0,30.53,South,180,0.0,0.0,80,0.06,,,0.11,33,Rainwise IP-100,2017-03-26 20:15:00,
2017-03-26 16:20:00,36.9,32.0,30.53,South,180,1.0,2.0,81,0.00,,,0.11,30,Rainwise IP-100,2017-03-26 20:20:00,
2017-03-26 16:26:00,36.9,32.0,30.53,South,180,0.0,2.0,81,0.06,,,0.12,24,Rainwise IP-100,2017-03-26 20:26:00,
2017-03-26 16:31:00,36.8,32.0,30.54,WSW,247,2.0,3.0,81,0.06,,,0.12,27,Rainwise IP-100,2017-03-26 20:31:00,